Home   Weather   Grenoble   Past weeks

Flag for France Past Weather in Grenoble, Rhône-Alpes, France — Yesterday and Last 2 Weeks

Now
79 °F

Passing clouds.


Feels Like: 80 °F
Forecast: 61 / 87 °F
Wind: 7 mph from Northeast

Location: Grenoble / St. Geoirs

Current Time: Aug 30, 2016 at 5:00:49 PM

Latest Report: Aug 30, 2016 at 4:30 PM


Visibility: N/A

Pressure: 30.09 "Hg

Humidity: 48%

Dew Point: 57 °F

Location of GrenobleLocation

Past Weather in Grenoble — Graph

°F

Grenoble Temperature Yesterday

Maximum temperature yesterday: 75 °F (at 2:30 PM)
Minimum temperature yesterday: 63 °F (at 11:00 PM)
Average temperature yesterday: 70 °F

High & Low Weather Summary for the Past Weeks

 TemperatureHumidityPressure
High91 °F (Aug 26, 4:30 PM)100% (Aug 19, 8:00 AM)30.36 "Hg (Aug 19, 8:00 AM)
Low48 °F (Aug 22, 7:00 AM)29% (Aug 15, 4:00 PM)29.86 "Hg (Aug 17, 6:30 PM)
Average70 °F67%30.09 "Hg
* Reported Aug 15 4:00 PM — Aug 30 4:00 PM, Grenoble, Weather by CustomWeather, © 2016

Note: Actual official high and low records may vary slightly from our data, if they occured in-between our weather recording intervals... More about our weather records

Advertising

Grenoble Weather History for the Previous 24 Hours

Scroll right to see more
 ConditionsComfort  
Time TempWeatherWind HumidityBarometerVisibility
4:00 PM
Tue, Aug 30
79 °FPassing clouds.7 mph48%30.12 "HgN/A
3:30 PM79 °FPassing clouds.7 mph48%30.12 "HgN/A
3:00 PM77 °FPassing clouds.7 mph51%30.12 "HgN/A
2:30 PM77 °FPassing clouds.7 mph51%30.15 "HgN/A
2:00 PM75 °FPassing clouds.3 mph54%30.15 "HgN/A
1:30 PM73 °FPassing clouds.7 mph57%30.15 "HgN/A
1:00 PM73 °FPartly sunny.5 mph57%30.15 "HgN/A
12:30 PM72 °FScattered clouds.6 mph61%30.15 "HgN/A
12:00 PM72 °FSunny.2 mph61%30.18 "Hg10 mi
11:30 AM70 °FSunny.3 mph64%30.18 "Hg10 mi
11:00 AM68 °FPassing clouds.5 mph69%30.18 "HgN/A
10:30 AM66 °FPassing clouds.3 mph73%30.15 "HgN/A
10:00 AM64 °FPassing clouds.5 mph73%30.15 "HgN/A
9:30 AM63 °FPassing clouds.3 mph77%30.15 "HgN/A
9:00 AM61 °FPassing clouds.3 mph83%30.15 "HgN/A
8:30 AM61 °FPassing clouds.3 mph83%30.15 "HgN/A
8:00 AM59 °FScattered clouds.No wind88%30.15 "HgN/A
7:30 AM59 °FOvercast.3 mph88%30.15 "HgN/A
7:00 AM59 °FPassing clouds.3 mph88%30.15 "HgN/A
6:30 AM61 °FMostly cloudy.3 mph83%30.15 "HgN/A
6:00 AM61 °FPartly cloudy.1 mph77%30.15 "HgN/A
5:30 AM61 °FOvercast.3 mph83%30.15 "HgN/A
5:00 AM61 °FPassing clouds.2 mph77%30.12 "HgN/A
4:30 AM61 °FPassing clouds.3 mph77%30.12 "HgN/A
4:00 AM61 °FPassing clouds.2 mph83%30.15 "HgN/A
3:30 AM61 °FOvercast.2 mph83%30.15 "HgN/A
3:00 AM61 °FPassing clouds.6 mph83%30.15 "HgN/A
2:30 AM63 °FOvercast.5 mph77%30.15 "HgN/A
2:00 AM61 °FPassing clouds.3 mph83%30.15 "HgN/A
1:30 AM63 °FPassing clouds.2 mph77%30.18 "HgN/A
1:00 AM63 °FOvercast.6 mph77%30.18 "HgN/A
12:30 AM63 °FPassing clouds.2 mph77%30.18 "HgN/A
12:00 AM63 °FPassing clouds.9 mph73%30.18 "HgN/A
11:30 PM
Mon, Aug 29
64 °FClear.10 mph68%30.18 "Hg10 mi
11:00 PM63 °FPassing clouds.5 mph73%30.18 "HgN/A
10:30 PM64 °FPassing clouds.3 mph64%30.18 "HgN/A
10:00 PM64 °FPassing clouds.3 mph64%30.18 "HgN/A
9:30 PM66 °FPassing clouds.3 mph56%30.18 "HgN/A
9:00 PM68 °FPartly sunny.6 mph56%30.15 "HgN/A
8:30 PM68 °FPartly sunny.7 mph60%30.15 "HgN/A
8:00 PM70 °FOvercast.9 mph53%30.15 "HgN/A
7:30 PM70 °FOvercast.7 mph57%30.15 "HgN/A
7:00 PM72 °FPartly sunny.7 mph57%30.15 "HgN/A
6:30 PM72 °FMostly cloudy.10 mph57%30.15 "HgN/A
6:00 PM72 °FMostly cloudy.12 mph61%30.15 "HgN/A
5:30 PM72 °FMostly cloudy.13 mph61%30.15 "HgN/A
5:00 PM73 °FOvercast.12 mph57%30.15 "HgN/A
Weather by CustomWeather, © 2016

See weather overviewHow to use our weather pages